Time,TemperatureF,DewpointF,PressureIn,WindDirection,WindDirectionDegrees,WindSpeedMPH,WindSpeedGustMPH,Humidity,HourlyPrecipIn,Conditions,Clouds,dailyrainin,SoftwareType,DateUTC
2015-07-31 00:01:00,76.4,75.5,29.89,SSW,198,0.0,0.0,97,0.00,,,0.00,Wunderground v.1.15,2015-07-31 05:01:00,
2015-07-31 00:06:00,76.4,75.5,29.89,SSW,198,0.0,0.0,97,0.00,,,0.00,Wunderground v.1.15,2015-07-31 05:06:00,
2015-07-31 00:13:00,76.4,75.5,29.89,SSW,198,0.0,0.0,97,0.00,,,0.00,Wunderground v.1.15,2015-07-31 05:13:00,
2015-07-31 00:19:00,76.2,75.3,29.89,SSW,198,0.0,0.0,97,0.00,,,0.00,Wunderground v.1.15,2015-07-31 05:19:00,
2015-07-31 00:25:00,76.2,75.3,29.89,SSW,198,0.0,0.0,97,0.00,,,0.00,Wunderground v.1.15,2015-07-31 05:25:00,
2015-07-31 00:31:00,76.2,75.3,29.89,SSW,198,0.0,0.0,97,0.00,,,0.00,Wunderground v.1.15,2015-07-31 05:31:00,
2015-07-31 00:37:00,76.2,75.3,29.90,SSW,198,0.0,0.0,97,0.00,,,0.00,Wunderground v.1.15,2015-07-31 05:37:00,
2015-07-31 00:42:00,76.2,75.3,29.89,SSW,198,0.0,0.0,97,0.00,,,0.00,Wunderground v.1.15,2015-07-31 05:42:00,
2015-07-31 00:48:00,76.1,75.2,29.89,SSW,198,0.0,0.0,97,0.00,,,0.00,Wunderground v.1.15,2015-07-31 05:48:00,
2015-07-31 00:54:00,76.1,75.2,29.89,SSW,198,0.0,0.0,97,0.00,,,0.00,Wunderground v.1.15,2015-07-31 05:54:00,
2015-07-31 01:00:00,76.1,75.2,29.88,SSW,198,0.0,0.0,97,0.00,,,0.00,Wunderground v.1.15,2015-07-31 06:00:00,
2015-07-31 01:05:00,76.1,75.2,29.88,SSW,198,0.0,0.0,97,0.00,,,0.00,Wunderground v.1.15,2015-07-31 06:05:00,
2015-07-31 01:11:00,76.1,75.2,29.88,SSW,198,0.0,0.0,97,0.00,,,0.00,Wunderground v.1.15,2015-07-31 06:11:00,
2015-07-31 01:17:00,76.2,75.3,29.88,SSW,198,0.0,0.0,97,0.00,,,0.00,Wunderground v.1.15,2015-07-31 06:17:00,
2015-07-31 01:23:00,76.2,75.3,29.88,SSW,198,0.0,0.0,97,0.00,,,0.00,Wunderground v.1.15,2015-07-31 06:23:00,
2015-07-31 01:29:00,76.2,75.3,29.88,SSW,198,0.0,0.0,97,0.00,,,0.00,Wunderground v.1.15,2015-07-31 06:29:00,
2015-07-31 01:35:00,76.2,75.3,29.88,SSW,198,0.0,0.0,97,0.00,,,0.00,Wunderground v.1.15,2015-07-31 06:35:00,
2015-07-31 01:40:00,76.2,75.3,29.88,SSW,198,0.0,0.0,97,0.00,,,0.00,Wunderground v.1.15,2015-07-31 06:40:00,
2015-07-31 01:46:00,76.2,75.0,29.87,SSW,198,0.0,0.0,96,0.00,,,0.00,Wunderground v.1.15,2015-07-31 06:46:00,
2015-07-31 01:52:00,76.1,74.9,29.87,SSW,198,0.0,0.0,96,0.00,,,0.00,Wunderground v.1.15,2015-07-31 06:52:00,
2015-07-31 01:58:00,76.1,74.9,29.87,SSW,198,0.0,0.0,96,0.00,,,0.00,Wunderground v.1.15,2015-07-31 06:58:00,
2015-07-31 02:03:00,76.1,74.9,29.87,SSW,198,0.0,0.0,96,0.00,,,0.00,Wunderground v.1.15,2015-07-31 07:03:00,
2015-07-31 02:08:00,76.0,74.8,29.86,SSW,198,0.0,0.0,96,0.00,,,0.00,Wunderground v.1.15,2015-07-31 07:08:00,
2015-07-31 02:13:00,76.0,74.8,29.86,SSW,198,0.0,0.0,96,0.00,,,0.00,Wunderground v.1.15,2015-07-31 07:13:00,
2015-07-31 02:18:00,76.0,75.1,29.86,SSW,198,0.0,0.0,97,0.00,,,0.00,Wunderground v.1.15,2015-07-31 07:18:00,
2015-07-31 02:23:00,76.0,74.8,29.86,SSW,198,0.0,0.0,96,0.00,,,0.00,Wunderground v.1.15,2015-07-31 07:23:00,
2015-07-31 02:28:00,75.9,75.0,29.86,SSW,198,0.0,0.0,97,0.00,,,0.00,Wunderground v.1.15,2015-07-31 07:28:00,
2015-07-31 02:33:00,75.9,75.0,29.86,SSW,198,0.0,0.0,97,0.00,,,0.00,Wunderground v.1.15,2015-07-31 07:33:00,
2015-07-31 02:38:00,75.9,75.0,29.85,SSW,198,0.0,0.0,97,0.00,,,0.00,Wunderground v.1.15,2015-07-31 07:38:00,
2015-07-31 02:43:00,75.9,75.0,29.85,SSW,198,0.0,0.0,97,0.00,,,0.00,Wunderground v.1.15,2015-07-31 07:43:00,
2015-07-31 02:48:00,75.8,74.9,29.84,SSW,198,0.0,0.0,97,0.00,,,0.00,Wunderground v.1.15,2015-07-31 07:48:00,
2015-07-31 02:53:00,75.8,74.9,29.85,SSW,198,0.0,0.0,97,0.00,,,0.00,Wunderground v.1.15,2015-07-31 07:53:00,
2015-07-31 02:58:00,75.8,74.9,29.85,SSW,198,0.0,0.0,97,0.00,,,0.00,Wunderground v.1.15,2015-07-31 07:58:00,
2015-07-31 03:03:00,75.8,74.9,29.85,SSW,198,0.0,0.0,97,0.00,,,0.00,Wunderground v.1.15,2015-07-31 08:03:00,
2015-07-31 03:08:00,75.7,74.8,29.85,SSW,198,0.0,0.0,97,0.00,,,0.00,Wunderground v.1.15,2015-07-31 08:08:00,
2015-07-31 03:13:00,75.7,74.8,29.84,SSW,198,0.0,0.0,97,0.00,,,0.00,Wunderground v.1.15,2015-07-31 08:13:00,
2015-07-31 03:18:00,75.6,74.7,29.84,SSW,198,0.0,0.0,97,0.00,,,0.00,Wunderground v.1.15,2015-07-31 08:18:00,
2015-07-31 03:23:00,75.6,74.7,29.84,SSW,198,0.0,0.0,97,0.00,,,0.00,Wunderground v.1.15,2015-07-31 08:23:00,
2015-07-31 03:28:00,75.6,74.7,29.84,SSW,198,0.0,0.0,97,0.00,,,0.00,Wunderground v.1.15,2015-07-31 08:28:00,
2015-07-31 03:33:00,75.6,74.7,29.84,SSW,198,0.0,0.0,97,0.00,,,0.00,Wunderground v.1.15,2015-07-31 08:33:00,
2015-07-31 03:38:00,75.6,74.7,29.84,SSW,198,0.0,0.0,97,0.00,,,0.00,Wunderground v.1.15,2015-07-31 08:38:00,
2015-07-31 03:43:00,75.5,74.6,29.84,SSW,198,0.0,0.0,97,0.00,,,0.00,Wunderground v.1.15,2015-07-31 08:43:00,
2015-07-31 03:48:00,75.5,74.6,29.84,SSW,198,0.0,0.0,97,0.00,,,0.00,Wunderground v.1.15,2015-07-31 08:48:00,
2015-07-31 03:53:00,75.5,74.6,29.84,SSW,198,0.0,0.0,97,0.00,,,0.00,Wunderground v.1.15,2015-07-31 08:53:00,
2015-07-31 03:58:00,75.5,74.6,29.84,SSW,198,0.0,0.0,97,0.00,,,0.00,Wunderground v.1.15,2015-07-31 08:58:00,
2015-07-31 04:03:00,75.5,74.6,29.84,SSW,198,0.0,0.0,97,0.00,,,0.00,Wunderground v.1.15,2015-07-31 09:03:00,
2015-07-31 04:08:00,75.4,74.5,29.84,SSW,198,0.0,0.0,97,0.00,,,0.00,Wunderground v.1.15,2015-07-31 09:08:00,
2015-07-31 04:13:00,75.4,74.5,29.84,SSW,198,0.0,0.0,97,0.00,,,0.00,Wunderground v.1.15,2015-07-31 09:13:00,
2015-07-31 04:19:00,75.4,74.5,29.84,SSW,198,0.0,0.0,97,0.00,,,0.00,Wunderground v.1.15,2015-07-31 09:19:00,
2015-07-31 04:24:00,75.4,74.5,29.85,SSW,198,0.0,0.0,97,0.00,,,0.00,Wunderground v.1.15,2015-07-31 09:24:00,
2015-07-31 04:29:00,75.3,74.4,29.85,SSW,198,0.0,0.0,97,0.00,,,0.00,Wunderground v.1.15,2015-07-31 09:29:00,
2015-07-31 04:34:00,75.3,74.4,29.84,SSW,198,0.0,0.0,97,0.00,,,0.00,Wunderground v.1.15,2015-07-31 09:34:00,
2015-07-31 04:39:00,75.3,74.4,29.84,SSW,198,0.0,0.0,97,0.00,,,0.00,Wunderground v.1.15,2015-07-31 09:39:00,
2015-07-31 04:44:00,75.3,74.4,29.84,SSW,198,0.0,0.0,97,0.00,,,0.00,Wunderground v.1.15,2015-07-31 09:44:00,
2015-07-31 04:49:00,75.3,74.4,29.85,SSW,198,0.0,0.0,97,0.00,,,0.00,Wunderground v.1.15,2015-07-31 09:49:00,
2015-07-31 04:54:00,75.3,74.4,29.85,SSW,198,0.0,0.0,97,0.00,,,0.00,Wunderground v.1.15,2015-07-31 09:54:00,
2015-07-31 04:59:00,75.3,74.4,29.85,SSW,198,0.0,0.0,97,0.00,,,0.00,Wunderground v.1.15,2015-07-31 09:59:00,
2015-07-31 05:04:00,75.3,74.4,29.85,SSW,198,0.0,0.0,97,0.00,,,0.00,Wunderground v.1.15,2015-07-31 10:04:00,
2015-07-31 05:09:00,75.2,74.3,29.85,SSW,198,0.0,0.0,97,0.00,,,0.00,Wunderground v.1.15,2015-07-31 10:09:00,
2015-07-31 05:14:00,75.3,74.4,29.85,SSW,198,0.0,0.0,97,0.00,,,0.00,Wunderground v.1.15,2015-07-31 10:14:00,
2015-07-31 05:19:00,75.3,74.4,29.85,SSW,198,0.0,0.0,97,0.00,,,0.00,Wunderground v.1.15,2015-07-31 10:19:00,
2015-07-31 05:24:00,75.2,74.3,29.85,SSW,198,0.0,0.0,97,0.00,,,0.00,Wunderground v.1.15,2015-07-31 10:24:00,
2015-07-31 05:29:00,75.2,74.3,29.86,SSW,198,0.0,0.0,97,0.00,,,0.00,Wunderground v.1.15,2015-07-31 10:29:00,
2015-07-31 05:34:00,75.2,74.3,29.86,SSW,198,0.0,0.0,97,0.00,,,0.00,Wunderground v.1.15,2015-07-31 10:34:00,
2015-07-31 05:39:00,75.2,74.3,29.86,SSW,198,0.0,0.0,97,0.00,,,0.00,Wunderground v.1.15,2015-07-31 10:39:00,
2015-07-31 05:44:00,75.2,74.3,29.86,SSW,198,0.0,0.0,97,0.00,,,0.00,Wunderground v.1.15,2015-07-31 10:44:00,
2015-07-31 05:49:00,75.2,74.3,29.86,SSW,198,0.0,0.0,97,0.00,,,0.00,Wunderground v.1.15,2015-07-31 10:49:00,
2015-07-31 05:54:00,75.2,74.3,29.86,SSW,198,0.0,0.0,97,0.00,,,0.00,Wunderground v.1.15,2015-07-31 10:54:00,
2015-07-31 05:59:00,75.2,74.3,29.86,SSW,198,0.0,0.0,97,0.00,,,0.00,Wunderground v.1.15,2015-07-31 10:59:00,
2015-07-31 06:05:00,75.2,74.3,29.86,SSW,198,0.0,0.0,97,0.00,,,0.00,Wunderground v.1.15,2015-07-31 11:05:00,
2015-07-31 06:10:00,75.2,74.3,29.86,SSW,198,0.0,0.0,97,0.00,,,0.00,Wunderground v.1.15,2015-07-31 11:10:00,
2015-07-31 06:15:00,75.2,74.3,29.86,SSW,198,0.0,0.0,97,0.00,,,0.00,Wunderground v.1.15,2015-07-31 11:15:00,
2015-07-31 06:20:00,75.2,74.3,29.87,SSW,198,0.0,0.0,97,0.00,,,0.00,Wunderground v.1.15,2015-07-31 11:20:00,
2015-07-31 06:25:00,75.2,74.3,29.87,ENE,57,0.0,0.0,97,0.00,,,0.00,Wunderground v.1.15,2015-07-31 11:25:00,
2015-07-31 06:30:00,75.3,74.4,29.86,NE,56,0.0,0.0,97,0.00,,,0.00,Wunderground v.1.15,2015-07-31 11:30:00,
2015-07-31 06:35:00,75.3,74.4,29.86,NE,56,0.0,0.0,97,0.00,,,0.00,Wunderground v.1.15,2015-07-31 11:35:00,
2015-07-31 06:40:00,75.5,74.6,29.86,NE,56,0.0,0.0,97,0.00,,,0.00,Wunderground v.1.15,2015-07-31 11:40:00,
2015-07-31 06:45:00,75.6,75.0,29.86,NE,52,0.0,0.0,98,0.00,,,0.00,Wunderground v.1.15,2015-07-31 11:45:00,
2015-07-31 06:50:00,75.7,75.1,29.86,NE,51,0.0,0.0,98,0.00,,,0.00,Wunderground v.1.15,2015-07-31 11:50:00,
2015-07-31 06:55:00,75.8,75.2,29.87,NE,51,0.0,0.0,98,0.00,,,0.00,Wunderground v.1.15,2015-07-31 11:55:00,
2015-07-31 07:00:00,76.0,75.4,29.86,NE,50,0.0,2.0,98,0.00,,,0.00,Wunderground v.1.15,2015-07-31 12:00:00,
2015-07-31 07:05:00,76.2,75.6,29.87,NE,50,0.0,2.0,98,0.00,,,0.00,Wunderground v.1.15,2015-07-31 12:05:00,
2015-07-31 07:10:00,76.4,75.8,29.87,NE,50,0.0,0.0,98,0.00,,,0.00,Wunderground v.1.15,2015-07-31 12:10:00,
2015-07-31 07:15:00,76.6,76.0,29.87,NE,49,0.0,3.0,98,0.00,,,0.00,Wunderground v.1.15,2015-07-31 12:15:00,
2015-07-31 07:20:00,76.7,76.1,29.88,NE,50,0.0,0.0,98,0.00,,,0.00,Wunderground v.1.15,2015-07-31 12:20:00,
2015-07-31 07:25:00,76.9,76.0,29.88,NE,53,0.0,0.0,97,0.00,,,0.00,Wunderground v.1.15,2015-07-31 12:25:00,
2015-07-31 07:30:00,77.1,76.2,29.89,NE,53,0.0,0.0,97,0.00,,,0.00,Wunderground v.1.15,2015-07-31 12:30:00,
2015-07-31 07:35:00,77.2,76.3,29.89,NE,53,0.0,0.0,97,0.00,,,0.00,Wunderground v.1.15,2015-07-31 12:35:00,
2015-07-31 07:40:00,77.3,76.4,29.88,NE,53,0.0,0.0,97,0.00,,,0.00,Wunderground v.1.15,2015-07-31 12:40:00,
2015-07-31 07:45:00,77.4,76.5,29.88,NE,53,0.0,0.0,97,0.00,,,0.00,Wunderground v.1.15,2015-07-31 12:45:00,
2015-07-31 07:50:00,77.5,76.6,29.89,NE,53,0.0,0.0,97,0.00,,,0.00,Wunderground v.1.15,2015-07-31 12:50:00,
2015-07-31 07:55:00,77.7,76.8,29.89,NE,53,0.0,0.0,97,0.00,,,0.00,Wunderground v.1.15,2015-07-31 12:55:00,
2015-07-31 08:00:00,77.9,77.0,29.89,NE,53,0.0,0.0,97,0.00,,,0.00,Wunderground v.1.15,2015-07-31 13:00:00,
2015-07-31 08:05:00,78.0,76.8,29.89,NE,53,0.0,2.0,96,0.00,,,0.00,Wunderground v.1.15,2015-07-31 13:05:00,
2015-07-31 08:10:00,78.1,76.9,29.89,ENE,65,2.0,4.0,96,0.00,,,0.00,Wunderground v.1.15,2015-07-31 13:10:00,
2015-07-31 08:16:00,78.1,76.6,29.89,ENE,69,0.0,4.0,95,0.00,,,0.00,Wunderground v.1.15,2015-07-31 13:16:00,
2015-07-31 08:21:00,78.2,76.6,29.88,ENE,69,0.0,1.0,95,0.00,,,0.00,Wunderground v.1.15,2015-07-31 13:21:00,
2015-07-31 08:26:00,78.4,76.8,29.89,SE,136,0.0,1.0,95,0.00,,,0.00,Wunderground v.1.15,2015-07-31 13:26:00,
2015-07-31 08:31:00,78.7,77.1,29.89,SSE,155,0.0,0.0,95,0.00,,,0.00,Wunderground v.1.15,2015-07-31 13:31:00,
2015-07-31 08:36:00,79.1,77.2,29.89,SSE,152,0.0,4.0,94,0.00,,,0.00,Wunderground v.1.15,2015-07-31 13:36:00,
2015-07-31 08:41:00,79.5,77.3,29.89,East,92,0.0,0.0,93,0.00,,,0.00,Wunderground v.1.15,2015-07-31 13:41:00,
2015-07-31 08:46:00,79.9,77.7,29.89,East,84,0.0,5.0,93,0.00,,,0.00,Wunderground v.1.15,2015-07-31 13:46:00,
2015-07-31 08:51:00,80.3,77.8,29.89,East,84,0.0,3.0,92,0.00,,,0.00,Wunderground v.1.15,2015-07-31 13:51:00,
2015-07-31 08:56:00,80.8,77.9,29.89,East,82,0.0,5.0,91,0.00,,,0.00,Wunderground v.1.15,2015-07-31 13:56:00,
2015-07-31 09:01:00,81.2,78.0,29.89,East,86,0.0,0.0,90,0.00,,,0.00,Wunderground v.1.15,2015-07-31 14:01:00,
2015-07-31 09:06:00,81.6,77.7,29.89,East,91,0.0,5.0,88,0.00,,,0.00,Wunderground v.1.15,2015-07-31 14:06:00,
2015-07-31 09:11:00,82.0,78.1,29.89,ESE,121,0.0,0.0,88,0.00,,,0.00,Wunderground v.1.15,2015-07-31 14:11:00,
2015-07-31 09:16:00,82.4,78.1,29.89,ESE,117,0.0,5.0,87,0.00,,,0.00,Wunderground v.1.15,2015-07-31 14:16:00,
2015-07-31 09:21:00,82.9,78.3,29.89,ESE,109,0.0,0.0,86,0.00,,,0.00,Wunderground v.1.15,2015-07-31 14:21:00,
2015-07-31 09:26:00,83.3,78.7,29.89,ESE,103,0.0,0.0,86,0.00,,,0.00,Wunderground v.1.15,2015-07-31 14:26:00,
2015-07-31 09:31:00,83.8,78.8,29.89,ESE,103,0.0,0.0,85,0.00,,,0.00,Wunderground v.1.15,2015-07-31 14:31:00,
2015-07-31 09:36:00,84.3,79.3,29.89,East,96,0.0,5.0,85,0.00,,,0.00,Wunderground v.1.15,2015-07-31 14:36:00,
2015-07-31 09:42:00,84.7,79.3,29.89,East,98,0.0,0.0,84,0.00,,,0.00,Wunderground v.1.15,2015-07-31 14:42:00,
2015-07-31 09:47:00,85.1,79.0,29.89,East,96,0.0,5.0,82,0.00,,,0.00,Wunderground v.1.15,2015-07-31 14:47:00,
2015-07-31 09:52:00,85.5,79.4,29.89,ESE,110,0.0,3.0,82,0.00,,,0.00,Wunderground v.1.15,2015-07-31 14:52:00,
2015-07-31 09:57:00,86.1,80.3,29.89,ESE,110,0.0,3.0,83,0.00,,,0.00,Wunderground v.1.15,2015-07-31 14:57:00,
2015-07-31 10:02:00,86.4,79.1,29.89,SE,130,0.0,0.0,79,0.00,,,0.00,Wunderground v.1.15,2015-07-31 15:02:00,
2015-07-31 10:07:00,86.8,79.1,29.89,SE,125,0.0,0.0,78,0.00,,,0.00,Wunderground v.1.15,2015-07-31 15:07:00,
2015-07-31 10:12:00,87.1,79.4,29.89,ESE,121,0.0,1.0,78,0.00,,,0.00,Wunderground v.1.15,2015-07-31 15:12:00,
2015-07-31 10:17:00,87.6,80.7,29.89,ESE,122,0.0,1.0,80,0.00,,,0.00,Wunderground v.1.15,2015-07-31 15:17:00,
2015-07-31 10:22:00,88.0,80.3,29.89,ESE,123,2.0,2.0,78,0.00,,,0.00,Wunderground v.1.15,2015-07-31 15:22:00,
2015-07-31 10:27:00,88.4,79.9,29.89,ESE,123,0.0,3.0,76,0.00,,,0.00,Wunderground v.1.15,2015-07-31 15:27:00,
2015-07-31 10:32:00,88.6,80.1,29.89,SE,142,0.0,1.0,76,0.00,,,0.00,Wunderground v.1.15,2015-07-31 15:32:00,
2015-07-31 10:37:00,89.0,80.8,29.89,SE,144,0.0,1.0,77,0.00,,,0.00,Wunderground v.1.15,2015-07-31 15:37:00,
2015-07-31 10:42:00,89.3,79.9,29.89,SE,144,0.0,1.0,74,0.00,,,0.00,Wunderground v.1.15,2015-07-31 15:42:00,
2015-07-31 10:47:00,89.6,80.6,29.89,SE,145,0.0,1.0,75,0.00,,,0.00,Wunderground v.1.15,2015-07-31 15:47:00,
2015-07-31 10:52:00,89.7,79.5,29.89,SSE,150,0.0,1.0,72,0.00,,,0.00,Wunderground v.1.15,2015-07-31 15:52:00,
2015-07-31 10:57:00,89.9,79.2,29.89,SSE,150,0.0,2.0,71,0.00,,,0.00,Wunderground v.1.15,2015-07-31 15:57:00,
2015-07-31 11:02:00,90.0,79.3,29.89,SSE,150,0.0,0.0,71,0.00,,,0.00,Wunderground v.1.15,2015-07-31 16:02:00,
2015-07-31 11:07:00,90.1,80.7,29.89,SSE,150,0.0,0.0,74,0.00,,,0.00,Wunderground v.1.15,2015-07-31 16:07:00,
2015-07-31 11:12:00,90.5,80.2,29.89,SSE,151,3.0,4.0,72,0.00,,,0.00,Wunderground v.1.15,2015-07-31 16:12:00,
2015-07-31 11:17:00,90.7,79.6,29.89,SSE,151,0.0,4.0,70,0.00,,,0.00,Wunderground v.1.15,2015-07-31 16:17:00,
2015-07-31 11:22:00,90.8,80.5,29.89,SSE,152,0.0,0.0,72,0.00,,,0.00,Wunderground v.1.15,2015-07-31 16:22:00,
2015-07-31 11:27:00,91.0,82.0,29.89,SSE,153,0.0,1.0,75,0.00,,,0.00,Wunderground v.1.15,2015-07-31 16:27:00,
2015-07-31 11:32:00,91.1,80.4,29.89,SSE,153,0.0,1.0,71,0.00,,,0.00,Wunderground v.1.15,2015-07-31 16:32:00,
2015-07-31 11:37:00,91.0,80.3,29.89,SSE,149,0.0,1.0,71,0.00,,,0.00,Wunderground v.1.15,2015-07-31 16:37:00,
2015-07-31 11:42:00,90.9,80.2,29.89,SSE,148,0.0,1.0,71,0.00,,,0.00,Wunderground v.1.15,2015-07-31 16:42:00,
2015-07-31 11:47:00,90.8,79.2,29.89,SSE,147,0.0,1.0,69,0.00,,,0.00,Wunderground v.1.15,2015-07-31 16:47:00,
2015-07-31 11:52:00,90.8,80.1,29.89,SSE,147,0.0,0.0,71,0.00,,,0.00,Wunderground v.1.15,2015-07-31 16:52:00,
2015-07-31 11:57:00,90.9,79.8,29.89,SE,146,0.0,0.0,70,0.00,,,0.00,Wunderground v.1.15,2015-07-31 16:57:00,
2015-07-31 12:02:00,90.9,80.2,29.89,SE,146,0.0,0.0,71,0.00,,,0.00,Wunderground v.1.15,2015-07-31 17:02:00,
2015-07-31 12:07:00,91.2,80.5,29.89,SE,146,0.0,0.0,71,0.00,,,0.00,Wunderground v.1.15,2015-07-31 17:07:00,
2015-07-31 12:12:00,91.5,80.3,29.88,SSE,150,0.0,0.0,70,0.00,,,0.00,Wunderground v.1.15,2015-07-31 17:12:00,
2015-07-31 12:17:00,91.9,79.4,29.88,SSE,157,3.0,4.0,67,0.00,,,0.00,Wunderground v.1.15,2015-07-31 17:17:00,
2015-07-31 12:22:00,91.8,80.2,29.88,SSE,157,0.0,1.0,69,0.00,,,0.00,Wunderground v.1.15,2015-07-31 17:22:00,
2015-07-31 12:27:00,92.0,80.8,29.88,SSE,157,0.0,1.0,70,0.00,,,0.00,Wunderground v.1.15,2015-07-31 17:27:00,
2015-07-31 12:32:00,92.2,80.1,29.88,SSE,155,0.0,1.0,68,0.00,,,0.00,Wunderground v.1.15,2015-07-31 17:32:00,
2015-07-31 12:37:00,92.3,80.2,29.88,SSE,155,0.0,1.0,68,0.00,,,0.00,Wunderground v.1.15,2015-07-31 17:37:00,
2015-07-31 12:42:00,92.4,80.7,29.88,NNE,30,0.0,6.0,69,0.00,,,0.00,Wunderground v.1.15,2015-07-31 17:42:00,
2015-07-31 12:47:00,92.5,80.8,29.88,NE,47,0.0,6.0,69,0.00,,,0.00,Wunderground v.1.15,2015-07-31 17:47:00,
2015-07-31 12:52:00,92.4,79.4,29.88,NNE,29,0.0,3.0,66,0.00,,,0.00,Wunderground v.1.15,2015-07-31 17:52:00,
2015-07-31 12:58:00,92.5,79.9,29.88,NNE,27,0.0,3.0,67,0.00,,,0.00,Wunderground v.1.15,2015-07-31 17:58:00,
2015-07-31 13:03:00,92.4,79.8,29.88,NNE,27,0.0,0.0,67,0.00,,,0.00,Wunderground v.1.15,2015-07-31 18:03:00,
2015-07-31 13:08:00,92.4,79.4,29.88,NNE,27,0.0,0.0,66,0.00,,,0.00,Wunderground v.1.15,2015-07-31 18:08:00,
2015-07-31 13:13:00,92.3,80.7,29.88,SSE,157,3.0,6.0,69,0.00,,,0.00,Wunderground v.1.15,2015-07-31 18:13:00,
2015-07-31 13:18:00,91.2,78.2,29.88,SSE,153,0.0,9.0,66,0.00,,,0.00,Wunderground v.1.15,2015-07-31 18:18:00,
2015-07-31 13:23:00,90.1,78.6,29.88,SSE,164,0.0,6.0,69,0.00,,,0.00,Wunderground v.1.15,2015-07-31 18:23:00,
2015-07-31 13:28:00,89.8,78.7,29.87,East,101,0.0,6.0,70,0.00,,,0.00,Wunderground v.1.15,2015-07-31 18:28:00,
2015-07-31 13:38:00,90.0,78.5,29.86,SE,146,0.0,4.0,69,0.00,,,0.00,Wunderground v.1.15,2015-07-31 18:38:00,
2015-07-31 13:43:00,90.2,79.9,29.86,SE,146,0.0,1.0,72,0.00,,,0.00,Wunderground v.1.15,2015-07-31 18:43:00,
2015-07-31 13:48:00,90.8,80.1,29.86,SSE,148,0.0,1.0,71,0.00,,,0.00,Wunderground v.1.15,2015-07-31 18:48:00,
2015-07-31 13:53:00,90.9,78.4,29.86,SE,143,1.0,6.0,67,0.00,,,0.00,Wunderground v.1.15,2015-07-31 18:53:00,
2015-07-31 13:58:00,90.9,78.4,29.85,SSE,168,0.0,6.0,67,0.00,,,0.00,Wunderground v.1.15,2015-07-31 18:58:00,
2015-07-31 14:03:00,91.1,78.2,29.85,South,170,0.0,5.0,66,0.00,,,0.00,Wunderground v.1.15,2015-07-31 19:03:00,
2015-07-31 14:13:00,91.8,79.7,29.85,South,170,0.0,0.0,68,0.00,,,0.00,Wunderground v.1.15,2015-07-31 19:13:00,
2015-07-31 14:18:00,92.1,79.1,29.85,South,170,0.0,0.0,66,0.00,,,0.00,Wunderground v.1.15,2015-07-31 19:18:00,
2015-07-31 14:23:00,92.6,80.9,29.84,South,170,0.0,0.0,69,0.00,,,0.00,Wunderground v.1.15,2015-07-31 19:23:00,
2015-07-31 14:28:00,92.6,79.1,29.84,SSE,161,0.0,1.0,65,0.00,,,0.00,Wunderground v.1.15,2015-07-31 19:28:00,
2015-07-31 14:33:00,92.9,79.4,29.84,SSE,161,0.0,0.0,65,0.00,,,0.00,Wunderground v.1.15,2015-07-31 19:33:00,
2015-07-31 14:38:00,93.4,81.3,29.83,SSE,161,0.0,7.0,68,0.00,,,0.00,Wunderground v.1.15,2015-07-31 19:38:00,
2015-07-31 14:43:00,93.8,81.2,29.83,SSE,161,0.0,1.0,67,0.00,,,0.00,Wunderground v.1.15,2015-07-31 19:43:00,
2015-07-31 14:48:00,94.0,80.4,29.82,SSE,161,0.0,1.0,65,0.00,,,0.00,Wunderground v.1.15,2015-07-31 19:48:00,
2015-07-31 14:53:00,94.0,80.9,29.82,SSE,161,0.0,0.0,66,0.00,,,0.00,Wunderground v.1.15,2015-07-31 19:53:00,
2015-07-31 14:58:00,94.1,81.5,29.82,SSE,161,0.0,0.0,67,0.00,,,0.00,Wunderground v.1.15,2015-07-31 19:58:00,
2015-07-31 15:03:00,94.3,80.7,29.82,SSE,155,4.0,4.0,65,0.00,,,0.00,Wunderground v.1.15,2015-07-31 20:03:00,
2015-07-31 15:09:00,94.3,80.2,29.82,WNW,294,0.0,5.0,64,0.00,,,0.00,Wunderground v.1.15,2015-07-31 20:09:00,
2015-07-31 15:14:00,94.2,81.1,29.82,WNW,294,0.0,1.0,66,0.00,,,0.00,Wunderground v.1.15,2015-07-31 20:14:00,
2015-07-31 15:19:00,94.6,81.5,29.82,West,281,0.0,1.0,66,0.00,,,0.00,Wunderground v.1.15,2015-07-31 20:19:00,
2015-07-31 15:24:00,94.8,81.2,29.82,WNW,282,0.0,0.0,65,0.00,,,0.00,Wunderground v.1.15,2015-07-31 20:24:00,
2015-07-31 15:29:00,95.2,83.0,29.82,WNW,282,0.0,0.0,68,0.00,,,0.00,Wunderground v.1.15,2015-07-31 20:29:00,
2015-07-31 15:34:00,95.3,80.7,29.82,SSW,192,0.0,1.0,63,0.00,,,0.00,Wunderground v.1.15,2015-07-31 20:34:00,
2015-07-31 15:39:00,95.1,81.5,29.82,SSW,192,0.0,1.0,65,0.00,,,0.00,Wunderground v.1.15,2015-07-31 20:39:00,
2015-07-31 15:44:00,94.9,82.2,29.82,SSW,192,0.0,0.0,67,0.00,,,0.00,Wunderground v.1.15,2015-07-31 20:44:00,
2015-07-31 15:49:00,94.6,81.5,29.82,SSW,192,0.0,0.0,66,0.00,,,0.00,Wunderground v.1.15,2015-07-31 20:49:00,
2015-07-31 15:59:00,94.0,83.2,29.80,SSW,192,0.0,0.0,71,0.00,,,0.00,Wunderground v.1.15,2015-07-31 20:59:00,
2015-07-31 16:04:00,94.0,83.2,29.80,SSW,193,0.0,0.0,71,0.00,,,0.00,Wunderground v.1.15,2015-07-31 21:04:00,
2015-07-31 16:09:00,94.2,81.6,29.80,SSE,155,1.0,4.0,67,0.00,,,0.00,Wunderground v.1.15,2015-07-31 21:09:00,
2015-07-31 16:14:00,94.0,81.4,29.80,South,178,0.0,2.0,67,0.00,,,0.00,Wunderground v.1.15,2015-07-31 21:14:00,
2015-07-31 16:19:00,93.5,83.1,29.81,ESE,113,4.0,7.0,72,0.41,,,0.01,Wunderground v.1.15,2015-07-31 21:19:00,
2015-07-31 16:24:00,90.9,81.5,29.83,SE,144,8.0,11.0,74,3.67,,,0.20,Wunderground v.1.15,2015-07-31 21:24:00,
2015-07-31 16:29:00,86.6,76.9,29.83,SSW,209,8.0,11.0,73,0.66,,,0.33,Wunderground v.1.15,2015-07-31 21:29:00,
2015-07-31 16:34:00,84.0,76.8,29.83,SSE,156,1.0,10.0,79,1.23,,,0.39,Wunderground v.1.15,2015-07-31 21:34:00,
2015-07-31 16:39:00,81.9,75.9,29.82,SE,136,9.0,13.0,82,0.29,,,0.45,Wunderground v.1.15,2015-07-31 21:39:00,
2015-07-31 16:44:00,80.3,75.7,29.82,SSE,150,0.0,10.0,86,0.11,,,0.45,Wunderground v.1.15,2015-07-31 21:44:00,
2015-07-31 16:49:00,79.2,75.0,29.82,SE,136,0.0,10.0,87,0.06,,,0.45,Wunderground v.1.15,2015-07-31 21:49:00,
2015-07-31 16:54:00,78.8,74.9,29.81,SSE,164,3.0,4.0,88,0.04,,,0.45,Wunderground v.1.15,2015-07-31 21:54:00,
2015-07-31 16:59:00,78.4,74.9,29.81,SE,145,0.0,5.0,89,0.00,,,0.45,Wunderground v.1.15,2015-07-31 21:59:00,
2015-07-31 17:04:00,78.4,75.2,29.82,SE,146,0.0,1.0,90,0.00,,,0.45,Wunderground v.1.15,2015-07-31 22:04:00,
2015-07-31 17:09:00,78.3,75.5,29.82,SSE,148,0.0,1.0,91,0.00,,,0.45,Wunderground v.1.15,2015-07-31 22:09:00,
2015-07-31 17:14:00,78.5,76.0,29.83,SSE,148,0.0,2.0,92,0.00,,,0.45,Wunderground v.1.15,2015-07-31 22:14:00,
2015-07-31 17:19:00,78.5,76.0,29.84,SSE,148,0.0,2.0,92,0.00,,,0.45,Wunderground v.1.15,2015-07-31 22:19:00,
2015-07-31 17:24:00,78.5,76.0,29.84,SSE,147,0.0,0.0,92,0.00,,,0.45,Wunderground v.1.15,2015-07-31 22:24:00,
2015-07-31 17:29:00,78.6,76.4,29.84,SSE,148,0.0,0.0,93,0.00,,,0.45,Wunderground v.1.15,2015-07-31 22:29:00,
2015-07-31 17:34:00,78.6,76.4,29.83,SSE,147,0.0,0.0,93,0.00,,,0.45,Wunderground v.1.15,2015-07-31 22:34:00,
2015-07-31 17:39:00,78.7,76.5,29.81,SSE,148,0.0,0.0,93,0.00,,,0.45,Wunderground v.1.15,2015-07-31 22:39:00,
2015-07-31 17:45:00,78.4,76.2,29.83,SSE,147,0.0,4.0,93,0.00,,,0.45,Wunderground v.1.15,2015-07-31 22:45:00,
2015-07-31 17:50:00,78.2,76.0,29.84,SSE,155,0.0,0.0,93,0.00,,,0.45,Wunderground v.1.15,2015-07-31 22:50:00,